Regional Weather Roundup
Issued by NWS

Home | Current Version | Previous Version | Graphics & Text | Print | Product List | Glossary On
Versions: 1 2 3 4 5 6 7 8 9 10 11 12 13 14 15 16 17 18 19 20 21 22 23 24 25 26 27 28
000
ASUS45 KTFX 220310
RWRMT
MONTANA REGIONAL WEATHER ROUNDUP
NATIONAL WEATHER SERVICE GREAT FALLS MT
900 PM MDT WED JUN 21 2017

NOTE: "FAIR" INDICATES FEW OR NO CLOUDS BELOW 12000 FEET WITH NO
SIGNIFICANT WEATHER AND/OR OBSTRUCTIONS TO VISIBILITY.

MTZ001>007-043-220400-
WEST OF THE DIVIDE

CITY           SKY/WX    TMP DP  RH WIND       PRES   REMARKS
KALISPELL      PTCLDY    67  34  29 W8        29.96R
MISSOULA       CLEAR     68  29  23 W12G20    30.00R
BUTTE          CLEAR     68  22  17 NW16G24   30.03R
MULLAN PASS    CLEAR     52  25  35 VRB3      30.14S
ANACONDA         N/A     66  27  22 W14       30.02R
DEER LODGE       N/A     63  32  31 NW12      30.02R
EUREKA           N/A     68  28  22 MISG      29.98R
HAMILTON         N/A     72  34  25 W5        30.03R
LIBBY            N/A     70  30  23 W6        29.97R
$$

MTZ008-052>055-220400-
SOUTHWEST MONTANA

CITY           SKY/WX    TMP DP  RH WIND       PRES   REMARKS
BOZEMAN        CLEAR     68  32  26 NW12      29.91R
DILLON         CLEAR     65  41  41 W12       29.98R
W YELLOWSTONE  CLOUDY    68  37  32 W6        30.03S
ENNIS          CLEAR     72  34  25 W8        30.02R
THREE FORKS      N/A     74  30  19 NW7       29.93R
$$

MTZ009-010-012-014-046-048-049-054-220400-
EAST SLOPES AND CENTRAL MONTANA

CITY           SKY/WX    TMP DP  RH WIND       PRES   REMARKS
CUT BANK       MOCLDY    61  34  36 NW15      29.93R
GREAT FALLS    CLEAR     68  22  17 W20       29.89R
MALMSTROM AFB  CLEAR     71  22  15 NW17G24   29.90R
HELENA         CLEAR     72  27  18 NW20G25   29.93R
CHOTEAU          N/A     64  23  20 W10G17    29.96R
CONRAD           N/A     66  33  29 W15       29.96R
$$

MTZ011-013-016-021-045-047-050-051-220400-
NORTH CENTRAL MONTANA

CITY           SKY/WX    TMP DP  RH WIND       PRES   REMARKS
HAVRE          PTCLDY    63  41  44 E3        29.86R
LEWISTOWN      CLEAR     68  29  23 NW14G22   29.88R
N BAR RANCH      N/A     66  28  24 W8G16     29.91R
CHINOOK          N/A     61  43  51 SW3       29.85R
FORT BENTON      N/A     72  27  18 MISG      29.87R
JUDITH GAP       N/A     67  29  23 N16G32    29.90R
$$

MTZ017>020-022>027-061-062-220400-
NORTHEAST MONTANA

CITY           SKY/WX    TMP DP  RH WIND       PRES   REMARKS
GLASGOW        MOCLDY    59  46  62 N24G39    29.80R
JORDAN           N/A     73  36  25 SE9       29.76R
SIDNEY         CLOUDY    71  39  31 E5        29.74F
WOLF POINT     LGT RAIN  68  44  42 N24G37    29.79R
MALTA          PTCLDY    57  45  62 E7        29.82R
PLENTYWOOD       N/A     61  43  51 NW18G47   29.80R
POPLAR           N/A     70  39  32 N5        29.80R
$$

MTZ028>42-056>058-220400-
SOUTHCENTRAL AND SOUTHEAST MONTANA

CITY           SKY/WX    TMP DP  RH WIND       PRES   REMARKS
BAKER          CLEAR     66  39  37 NE7       29.80S
BILLINGS       PTCLDY    79  39  23 NW8       29.81R
LIVINGSTON     CLEAR     72  34  24 W10G17    29.90R
MILES CITY     CLEAR     74  37  26 NE15      29.75S
BIG TIMBER     CLEAR     68  37  32 SW10      29.89R
FORSYTH          N/A     75  39  27 N5        29.74R
ROUNDUP          N/A     75  27  17 NW9       29.76R
$$

REGIONAL REPORTS...DAKOTAS

CITY           SKY/WX    TMP DP  RH WIND       PRES   REMARKS
WILLISTON      CLEAR     68  38  33 E7        29.75F
MINOT          CLEAR     60  40  47 NW7       29.74F
DICKINSON      CLEAR     61  39  44 NE9       29.77S
BEACH            N/A     61  43  51 SE5       29.82S
CROSBY           N/A     59  41  51 NW7       29.76R
TIOGA            N/A     61  39  44 NE5       29.77F
WATFORD CITY     N/A     61  45  55 E5        29.75F
BISMARCK       CLEAR     73  40  30 N9        29.77R
GRAND FORKS    CLEAR     69  53  56 NW9       29.65R
FARGO          PTCLDY    74  57  55 NW9       29.67R
BUFFALO SD       N/A     74  42  31 NE10      29.73S
RAPID CITY     CLEAR     74  49  41 N12       29.76R
$$

REGIONAL REPORTS...WYOMING/IDAHO/WASHINGTON

CITY           SKY/WX    TMP DP  RH WIND       PRES   REMARKS
GILLETTE       CLEAR     73  47  39 N10       29.83R
SHERIDAN       CLEAR     71  56  58 NW10      29.83R
BUFFALO WY     CLEAR     71  53  52 NW8       29.89R
CODY           CLEAR     73  48  41 NW6       29.91R
YELLOWSTONE LA   N/A     65  41  41 VRB6      30.13S
IDAHO FALLS    CLEAR     74  43  32 S20       29.92R
SALMON         CLEAR    N/A N/A N/A MISG        N/A
BOISE          PTCLDY    79  38  22 NW16      29.96R
SPOKANE        PTCLDY    75  24  15 W16       30.02S
$$

REGIONAL REPORTS...ALBERTA

CITY           SKY/WX    TMP DP  RH WIND       PRES   REMARKS
EDMONTON       CLEAR     57  37  47 NW10G22   29.85R
CALGARY        MOCLDY    57  28  33 NW8       29.95R
LETHBRIDGE     MOCLDY    54  43  66 NE8       29.92R
MEDICINE HAT   MOCLDY    57  43  58 VRB2      29.88R
WATERTON GATE    N/A     57  27  30 SW9G17      N/A
$$

REGIONAL REPORTS...SASKATCHEWAN

CITY           SKY/WX    TMP DP  RH WIND       PRES   REMARKS
SWIFT CURRENT  CLOUDY    57  39  51 NW21G36   29.80R
REGINA         MOCLDY    61  34  36 W13G20    29.74R
SASKATOON      MOCLDY    61  36  39 W17G26    29.66S
VAL MARIE        N/A     54  48  82 SW3         N/A
ROCKGLEN         N/A     50  46  87 W17G29      N/A
$$




USA.gov is the U.S. government's official web portal to all federal, state and local government web resources and services.